{"data":{"norad_id":48134,"epoch":"2026-09-20T04:46:46.039872Z","epoch_age_seconds":55139,"freshness":"FRESH","line1":"1 48134U 21027AU  26263.19914398  .00000115  00000+0  15472-4 0  9994","line2":"2 48134  53.1653 340.0427 0001780  15.6170 344.4886 15.31699010302312","mean_motion":15.3169901,"eccentricity":0.000178,"inclination_deg":53.1653,"raan_deg":340.0427,"arg_perigee_deg":15.617,"mean_anomaly_deg":344.4886,"bstar":1.5472e-5,"rev_number":30231,"period_min":94.013248725675,"perigee_km":469.52384573527,"apogee_km":471.96204699617,"semimajor_km":6848.8799463657,"source":"CELESTRAK","updated_at":"2026-09-20T09:00:38.768196Z"}}